Osceola, WI

11:52 PM CST on February 24, 2017 (GMT -0600)
Simenstad Municipal

Weather History for KOEO - November, 2013

Change the Weather History Date:

Sunday, November 3, 2013

  Actual Average (KANE) Record (KANE)
Temperature  
Mean Temperature 40 °F -  
Max Temperature 52 °F 45 °F 73 °F (2008)
Min Temperature 27 °F 30 °F 15 °F (2006)
Degree Days  
Heating Degree Days 26    
Moisture  
Dew Point 31 °F    
Average Humidity 68    
Maximum Humidity 99    
Minimum Humidity 46    
Precipitation  
Precipitation 0.00 in - - ()
Sea Level Pressure  
Sea Level Pressure 30.06 in    
Wind  
Wind Speed 8 mph (SE)    
Max Wind Speed 23 mph    
Max Gust Speed 34 mph    
Visibility 10 miles    
Events      
Averages and records for this station are not official NWS values.
T = Trace of Precipitation, MM = Missing Value Source: NWS Daily Summary

Daily Weather History Graph

Daily Weather History Graph

Search for Another Location

Airport or City:

Trip Planner

Search our weather history database for the weather conditions in past years. The results will help you decide how hot, cold, wet, or windy it might be!

Date:

Astronomy

Nov. 03, 2013 Rise Set
Actual Time 6:52 AM CST 4:54 PM CST
Civil Twilight 6:22 AM CST 5:25 PM CST
Nautical Twilight 5:46 AM CST 6:00 PM CST
Astronomical Twilight 5:12 AM CST 6:35 PM CST
Moon 6:58 AM CST (11/3) 5:08 PM CST (11/3)
Length of Visible Light 11h 03m
Length of Day
10h 02m
New Moon, 0% of the Moon is Illuminated
Nov 3
New Moon
Nov 9
First Quarter
Nov 17
Full
Nov 25
Last Quarter
Dec 2
New

Hourly Weather History & Observations

Time (CST) Temp. Windchill Dew Point Humidity Pressure Visibility Wind Dir Wind Speed Gust Speed Precip Events Conditions
12:15 AM 28.4 °F - 27.7 °F 97% 30.13 in 10.0 mi Calm Calm - N/A   Clear
12:35 AM 27.7 °F - 26.4 °F 95% 30.13 in 10.0 mi Calm Calm - N/A   Clear
12:55 AM 28.0 °F - 27.7 °F 99% 30.12 in 10.0 mi Calm Calm - N/A   Clear
1:15 AM 27.9 °F - 27.1 °F 97% 30.13 in 10.0 mi Calm Calm - N/A   Clear
1:35 AM 29.3 °F - 28.4 °F 96% 30.14 in 10.0 mi Calm Calm - N/A   Clear
1:55 AM 29.3 °F - 28.0 °F 95% 30.14 in 10.0 mi Calm Calm - N/A   Clear
1:15 AM 30.6 °F - 29.1 °F 94% 30.15 in 10.0 mi Calm Calm - N/A   Clear
1:35 AM 29.5 °F - 28.9 °F 98% 30.15 in 10.0 mi Calm Calm - N/A   Clear
1:55 AM 30.0 °F - 28.9 °F 96% 30.15 in 10.0 mi Calm Calm - N/A   Clear
2:15 AM 30.0 °F 24.1 °F 28.4 °F 94% 30.15 in 10.0 mi ESE 5.8 mph - N/A   Clear
2:35 AM 31.8 °F 25.4 °F 30.2 °F 94% 30.15 in 10.0 mi ESE 6.9 mph - N/A   Clear
2:55 AM 32.0 °F 26.4 °F 30.9 °F 96% 30.16 in 10.0 mi SE 5.8 mph - N/A   Clear
3:15 AM 32.9 °F 29.8 °F 31.1 °F 93% 30.15 in 10.0 mi ESE 3.5 mph - N/A   Mostly Cloudy
3:35 AM 33.8 °F 27.7 °F 31.1 °F 90% 30.15 in 10.0 mi ESE 6.9 mph - N/A   Scattered Clouds
3:55 AM 34.9 °F 29.9 °F 30.9 °F 85% 30.15 in 10.0 mi East 5.8 mph - N/A   Scattered Clouds
4:15 AM 34.7 °F 29.6 °F 31.1 °F 87% 30.14 in 10.0 mi ESE 5.8 mph - N/A   Mostly Cloudy
4:35 AM 34.5 °F 28.6 °F 31.1 °F 87% 30.14 in 10.0 mi SE 6.9 mph - N/A   Clear
4:55 AM 33.8 °F 28.6 °F 30.9 °F 89% 30.13 in 10.0 mi ESE 5.8 mph - N/A   Clear
5:15 AM 33.8 °F 28.6 °F 30.7 °F 89% 30.13 in 10.0 mi East 5.8 mph - N/A   Clear
5:35 AM 33.6 °F 27.5 °F 30.6 °F 89% 30.13 in 10.0 mi ESE 6.9 mph - N/A   Clear
5:55 AM 33.8 °F 28.6 °F 30.7 °F 89% 30.13 in 10.0 mi ESE 5.8 mph - N/A   Clear
6:15 AM 35.1 °F 28.6 °F 30.2 °F 82% 30.13 in 10.0 mi SE 8.1 mph - N/A   Clear
6:35 AM 35.2 °F 28.8 °F 30.2 °F 82% 30.13 in 10.0 mi SE 8.1 mph - N/A   Clear
6:55 AM 35.6 °F 28.6 °F 30.2 °F 81% 30.13 in 10.0 mi SE 9.2 mph - N/A   Clear
7:15 AM 35.6 °F 29.2 °F 30.2 °F 81% 30.14 in 10.0 mi SE 8.1 mph - N/A   Clear
7:35 AM 36.0 °F 28.0 °F 30.2 °F 80% 30.14 in 10.0 mi SE 11.5 mph 16.1 mph N/A   Clear
7:55 AM 37.4 °F 30.3 °F 30.2 °F 75% 30.15 in 10.0 mi SE 10.4 mph - N/A   Clear
8:15 AM 38.5 °F 31.6 °F 30.9 °F 74% 30.14 in 10.0 mi SE 10.4 mph - N/A   Clear
8:35 AM 39.7 °F 31.9 °F 30.9 °F 71% 30.13 in 10.0 mi ESE 13.8 mph 18.4 mph N/A   Clear
8:55 AM 41.0 °F 33.9 °F 31.3 °F 68% 30.13 in 10.0 mi SE 12.7 mph 17.3 mph N/A   Clear
9:15 AM 42.3 °F 34.4 °F 30.9 °F 64% 30.13 in 10.0 mi SSE 16.1 mph - N/A   Clear
9:35 AM 43.2 °F 36.6 °F 31.8 °F 64% 30.12 in 10.0 mi SSE 12.7 mph 20.7 mph N/A   Clear
9:55 AM 43.7 °F 37.3 °F 31.6 °F 63% 30.12 in 10.0 mi SSE 12.7 mph 23.0 mph N/A   Clear
10:15 AM 45.3 °F 38.4 °F 32.0 °F 60% 30.11 in 10.0 mi SE 16.1 mph 23.0 mph N/A   Clear
10:35 AM 46.6 °F - 32.2 °F 57% 30.11 in 10.0 mi SSE 17.3 mph 24.2 mph N/A   Clear
10:55 AM 48.0 °F - 32.5 °F 55% 30.11 in 10.0 mi SSE 11.5 mph 20.7 mph N/A   Clear
11:15 AM 49.1 °F - 32.9 °F 54% 30.10 in 10.0 mi SSE 17.3 mph 25.3 mph N/A   Clear
11:35 AM 49.8 °F - 33.3 °F 53% 30.08 in 10.0 mi SE 20.7 mph 25.3 mph N/A   Clear
11:55 AM 49.5 °F - 33.1 °F 53% 30.07 in 10.0 mi SE 18.4 mph 24.2 mph N/A   Clear
12:15 PM 50.4 °F - 33.6 °F 53% 30.06 in 10.0 mi SSE 17.3 mph 24.2 mph N/A   Mostly Cloudy
12:35 PM 51.1 °F - 34.0 °F 52% 30.04 in 10.0 mi SE 15.0 mph 26.5 mph N/A   Overcast
12:55 PM 51.8 °F - 33.1 °F 49% 30.03 in 10.0 mi SSE 21.9 mph 29.9 mph N/A   Overcast
1:15 PM 51.6 °F - 33.3 °F 50% 30.02 in 10.0 mi SSE 18.4 mph 27.6 mph N/A   Mostly Cloudy
1:35 PM 52.2 °F - 33.3 °F 49% 30.01 in 10.0 mi SE 20.7 mph 32.2 mph N/A   Scattered Clouds
1:55 PM 52.7 °F - 33.3 °F 48% 30.00 in 10.0 mi SE 19.6 mph 24.2 mph N/A   Clear
2:15 PM 52.0 °F - 32.4 °F 47% 29.99 in 10.0 mi SE 23.0 mph 29.9 mph N/A   Clear
2:35 PM 51.8 °F - 32.0 °F 47% 29.99 in 10.0 mi SE 23.0 mph 34.5 mph N/A   Clear
2:55 PM 52.7 °F - 32.2 °F 46% 29.98 in 10.0 mi SE 18.4 mph 29.9 mph N/A   Clear
3:15 PM 51.8 °F - 31.8 °F 47% 29.97 in 10.0 mi SE 19.6 mph 31.1 mph N/A   Clear
3:35 PM 50.9 °F - 32.9 °F 50% 29.97 in 10.0 mi SE 13.8 mph 24.2 mph N/A   Clear
3:55 PM 50.5 °F - 32.7 °F 51% 29.96 in 10.0 mi SE 17.3 mph 27.6 mph N/A   Clear
4:15 PM 50.0 °F - 32.5 °F 51% 29.95 in 10.0 mi SE 13.8 mph 27.6 mph N/A   Clear
4:35 PM 49.3 °F - 32.4 °F 52% 29.96 in 10.0 mi SE 13.8 mph 26.5 mph N/A   Clear
4:55 PM 48.6 °F - 32.2 °F 53% 29.96 in 10.0 mi SE 16.1 mph 23.0 mph N/A   Clear
5:15 PM 48.2 °F - 32.2 °F 54% 29.96 in 10.0 mi SE 17.3 mph 25.3 mph N/A   Clear
5:35 PM 48.2 °F - 32.0 °F 54% 29.96 in 10.0 mi SE 13.8 mph 23.0 mph N/A   Clear
5:55 PM 47.8 °F - 32.0 °F 54% 29.96 in 10.0 mi SSE 15.0 mph 21.9 mph N/A   Clear
6:15 PM 47.8 °F - 32.0 °F 54% 29.96 in 10.0 mi SE 16.1 mph 21.9 mph N/A   Clear
6:35 PM 47.5 °F - 32.2 °F 55% 29.96 in 10.0 mi SE 12.7 mph 23.0 mph N/A   Clear
6:55 PM 47.3 °F - 32.0 °F 55% 29.96 in 10.0 mi SE 16.1 mph 19.6 mph N/A   Clear
7:15 PM 47.3 °F - 32.0 °F 55% 29.96 in 10.0 mi SE 15.0 mph 25.3 mph N/A   Clear
7:35 PM 47.1 °F - 32.0 °F 56% 29.96 in 10.0 mi SSE 17.3 mph 26.5 mph N/A   Clear
7:55 PM 46.8 °F - 32.0 °F 57% 29.96 in 10.0 mi SSE 16.1 mph 24.2 mph N/A   Clear
8:15 PM 46.4 °F 40.1 °F 32.0 °F 57% 29.96 in 10.0 mi SE 15.0 mph 19.6 mph N/A   Clear
8:35 PM 46.6 °F - 32.0 °F 57% 29.97 in 10.0 mi SE 11.5 mph - N/A   Clear
8:55 PM 46.4 °F 39.8 °F 32.0 °F 57% 29.97 in 10.0 mi SE 16.1 mph 19.6 mph N/A   Clear
9:15 PM 46.6 °F - 32.0 °F 57% 29.98 in 10.0 mi SE 15.0 mph 20.7 mph N/A   Clear
9:35 PM 46.6 °F - 32.2 °F 57% 29.98 in 10.0 mi SSE 12.7 mph 19.6 mph N/A   Clear
9:55 PM 46.4 °F 39.8 °F 32.2 °F 58% 29.98 in 10.0 mi SSE 16.1 mph 21.9 mph N/A   Clear
10:15 PM 46.6 °F - 32.2 °F 57% 29.97 in 10.0 mi SE 15.0 mph 21.9 mph N/A   Clear
10:35 PM 46.4 °F 40.7 °F 32.4 °F 58% 29.97 in 10.0 mi SE 12.7 mph 19.6 mph N/A   Clear
10:55 PM 46.4 °F 40.7 °F 32.5 °F 59% 29.97 in 10.0 mi SSE 12.7 mph 18.4 mph N/A   Clear